Location: Chervonnoye
(48.6000°N, 34.4000°E)
Time: 18:21:12
(UTC+00:00)

N. Korean satellite - Pass Details

Date: 01 October 2021
Orbit: 450 x 495 km, 97.3° (Epoch: 15 October)

Event Time Altitude Azimuth Distance (km) Brightness Sun altitude
Rises 02:15:28 0° 25° (NNE) 2,547 10.8 -15.0°
Reaches altitude 10° 02:17:53 10° 41° (NE) 1,671 10.1 -14.6°
Maximum altitude 02:20:44 22° 94° (E) 1,111 9.3 -14.2°
Drops below altitude 10° 02:23:36 10° 146° (SSE) 1,677 9.6 -13.7°
Sets 02:26:01 0° 162° (SSE) 2,559 10.3 -13.3°
